{"data":{"norad_id":41550,"intl_designator":"2016-030B","name":"GSAT0210 (GALILEO 13)","alt_names":[],"object_type":"PAYLOAD","status":"ACTIVE","operator":null,"country":"ESA","launch_date":"2016-05-24","launch_site_code":"FRGUI","launch_vehicle":null,"mission":null,"orbit_class":"UNKNOWN","rcs_meters":15.8866,"size_class":null,"mass_kg":null,"dimensions":null,"purposes":["earth_obs","nav"],"wikipedia_slug":null,"has_3d_model":false,"image_url":null,"decayed_at":null,"tle_current":{"epoch":"2026-05-20T11:37:22.194624Z","epoch_age_seconds":464533,"freshness":"STALE","line1":"1 41550U 16030B   26140.48428466  .00000004  00000+0  00000+0 0  9992","line2":"2 41550  55.1019 222.4550 0003239 230.5838 129.4530  1.70473990 62196","mean_motion":1.7047399,"eccentricity":0.0003239,"inclination_deg":55.1019,"raan_deg":222.455,"arg_perigee_deg":230.5838,"mean_anomaly_deg":129.453,"bstar":0,"rev_number":6219,"period_min":844.70364071375,"perigee_km":23212.596671093,"apogee_km":23231.771759176,"semimajor_km":29600.321215134,"source":"CELESTRAK","updated_at":"2026-05-25T13:38:24.056626Z"}}}